owner,sensor,date,latitude,longitude,vertical_datum,sea_water_practical_salinity,qcFlag 
COMPS,ioos:station:USF.COMPS:C10:1,2011-11-01T00:00:00Z,27.1690,-82.9260,5.0,35.91,1111122 
COMPS,ioos:station:USF.COMPS:C10:1,2011-11-01T00:20:00Z,27.1690,-82.9260,5.0,35.9,1111122 
COMPS,ioos:station:USF.COMPS:C10:1,2011-11-01T00:40:00Z,27.1690,-82.9260,5.0,35.9,1111122 
COMPS,ioos:station:USF.COMPS:C10:1,2011-11-01T01:00:00Z,27.1690,-82.9260,5.0,35.89,1111122 
COMPS,ioos:station:USF.COMPS:C10:1,2011-11-01T01:20:00Z,27.1690,-82.9260,5.0,35.89,1111122 
COMPS,ioos:station:USF.COMPS:C10:1,2011-11-01T03:40:00Z,27.1690,-82.9260,5.0,35.89,1111122 
COMPS,ioos:station:USF.COMPS:C10:1,2011-11-01T04:00:00Z,27.1690,-82.9260,5.0,35.9,1111122 
COMPS,ioos:station:USF.COMPS:C10:1,2011-11-01T04:20:00Z,27.1690,-82.9260,5.0,35.9,1111122 
COMPS,ioos:station:USF.COMPS:C10:1,2011-11-01T04:40:00Z,27.1690,-82.9260,5.0,35.89,1111122 
COMPS,ioos:station:USF.COMPS:C10:1,2011-11-01T05:00:00Z,27.1690,-82.9260,5.0,35.9,1111122 
COMPS,ioos:station:USF.COMPS:C10:1,2011-11-01T05:20:00Z,27.1690,-82.9260,5.0,35.9,1111122 
COMPS,ioos:station:USF.COMPS:C10:1,2011-11-01T12:40:00Z,27.1690,-82.9260,5.0,35.9,1111122 
COMPS,ioos:station:USF.COMPS:C10:1,2011-11-01T13:00:00Z,27.1690,-82.9260,5.0,35.9,1111122 
COMPS,ioos:station:USF.COMPS:C10:1,2011-11-01T13:20:00Z,27.1690,-82.9260,5.0,35.9,1111122 
COMPS,ioos:station:USF.COMPS:C10:1,2011-11-01T13:40:00Z,27.1690,-82.9260,5.0,35.9,1111122 
COMPS,ioos:station:USF.COMPS:C10:1,2011-11-01T14:00:00Z,27.1690,-82.9260,5.0,35.9,1111122 
COMPS,ioos:station:USF.COMPS:C10:1,2011-11-01T14:20:00Z,27.1690,-82.9260,5.0,35.9,1111122 
COMPS,ioos:station:USF.COMPS:C10:1,2011-11-01T14:40:00Z,27.1690,-82.9260,5.0,35.9,1111122 
COMPS,ioos:station:USF.COMPS:C10:1,2011-11-01T15:00:00Z,27.1690,-82.9260,5.0,35.9,1111122 
COMPS,ioos:station:USF.COMPS:C10:1,2011-11-01T15:20:00Z,27.1690,-82.9260,5.0,35.91,1111122 
COMPS,ioos:station:USF.COMPS:C10:1,2011-11-01T15:40:00Z,27.1690,-82.9260,5.0,35.91,1111122 
COMPS,ioos:station:USF.COMPS:C10:1,2011-11-01T16:00:00Z,27.1690,-82.9260,5.0,35.91,1111122 
COMPS,ioos:station:USF.COMPS:C10:1,2011-11-01T16:20:00Z,27.1690,-82.9260,5.0,35.91,1111122 
COMPS,ioos:station:USF.COMPS:C10:1,2011-11-01T16:40:00Z,27.1690,-82.9260,5.0,35.91,1111122 
COMPS,ioos:station:USF.COMPS:C10:1,2011-11-01T17:00:00Z,27.1690,-82.9260,5.0,35.91,1111122 
COMPS,ioos:station:USF.COMPS:C10:1,2011-11-01T17:20:00Z,27.1690,-82.9260,5.0,35.91,1111122 
COMPS,ioos:station:USF.COMPS:C10:1,2011-11-01T17:40:00Z,27.1690,-82.9260,5.0,35.92,1111122 
COMPS,ioos:station:USF.COMPS:C10:1,2011-11-01T18:00:00Z,27.1690,-82.9260,5.0,35.92,1111122 
COMPS,ioos:station:USF.COMPS:C10:1,2011-11-01T18:20:00Z,27.1690,-82.9260,5.0,35.92,1111122 
COMPS,ioos:station:USF.COMPS:C10:1,2011-11-01T18:40:00Z,27.1690,-82.9260,5.0,35.92,1111122 
COMPS,ioos:station:USF.COMPS:C10:1,2011-11-01T19:00:00Z,27.1690,-82.9260,5.0,35.92,1111122 
COMPS,ioos:station:USF.COMPS:C10:1,2011-11-01T19:20:00Z,27.1690,-82.9260,5.0,35.92,1111122 
COMPS,ioos:station:USF.COMPS:C10:1,2011-11-01T19:40:00Z,27.1690,-82.9260,5.0,35.92,1111122 
COMPS,ioos:station:USF.COMPS:C10:1,2011-11-01T20:00:00Z,27.1690,-82.9260,5.0,35.92,1111122 
COMPS,ioos:station:USF.COMPS:C10:1,2011-11-01T20:20:00Z,27.1690,-82.9260,5.0,35.92,1111122 
COMPS,ioos:station:USF.COMPS:C10:1,2011-11-01T20:40:00Z,27.1690,-82.9260,5.0,35.92,1111122 
COMPS,ioos:station:USF.COMPS:C10:1,2011-11-01T21:00:00Z,27.1690,-82.9260,5.0,35.93,1111122 
COMPS,ioos:station:USF.COMPS:C10:1,2011-11-01T21:20:00Z,27.1690,-82.9260,5.0,35.93,1111122 
COMPS,ioos:station:USF.COMPS:C10:1,2011-11-01T21:40:00Z,27.1690,-82.9260,5.0,35.93,1111122 
COMPS,ioos:station:USF.COMPS:C10:1,2011-11-01T22:00:00Z,27.1690,-82.9260,5.0,35.93,1111122 
COMPS,ioos:station:USF.COMPS:C10:1,2011-11-01T22:20:00Z,27.1690,-82.9260,5.0,35.93,1111122 
COMPS,ioos:station:USF.COMPS:C10:1,2011-11-01T22:40:00Z,27.1690,-82.9260,5.0,35.93,1111122 
COMPS,ioos:station:USF.COMPS:C10:1,2011-11-01T23:00:00Z,27.1690,-82.9260,5.0,35.93,1111122 
COMPS,ioos:station:USF.COMPS:C10:1,2011-11-01T23:20:00Z,27.1690,-82.9260,5.0,35.93,1111122 
COMPS,ioos:station:USF.COMPS:C10:1,2011-11-01T23:40:00Z,27.1690,-82.9260,5.0,35.93,1111122 
COMPS,ioos:station:USF.COMPS:C10:1,2011-11-02T00:00:00Z,27.1690,-82.9260,5.0,35.93,1111122 
COMPS,ioos:station:USF.COMPS:C10:1,2011-11-02T00:20:00Z,27.1690,-82.9260,5.0,35.93,1111122 
COMPS,ioos:station:USF.COMPS:C10:1,2011-11-02T00:40:00Z,27.1690,-82.9260,5.0,35.93,1111122 
COMPS,ioos:station:USF.COMPS:C10:1,2011-11-02T01:00:00Z,27.1690,-82.9260,5.0,35.93,1111122 
COMPS,ioos:station:USF.COMPS:C10:1,2011-11-02T01:20:00Z,27.1690,-82.9260,5.0,35.93,1111122 
COMPS,ioos:station:USF.COMPS:C10:1,2011-11-02T01:40:00Z,27.1690,-82.9260,5.0,35.93,1111122 
COMPS,ioos:station:USF.COMPS:C10:1,2011-11-02T02:00:00Z,27.1690,-82.9260,5.0,35.94,1111122 
COMPS,ioos:station:USF.COMPS:C10:1,2011-11-02T02:20:00Z,27.1690,-82.9260,5.0,35.93,1111122 
COMPS,ioos:station:USF.COMPS:C10:1,2011-11-02T02:40:00Z,27.1690,-82.9260,5.0,35.94,1111122 
COMPS,ioos:station:USF.COMPS:C10:1,2011-11-02T03:00:00Z,27.1690,-82.9260,5.0,35.93,1111122 
COMPS,ioos:station:USF.COMPS:C10:1,2011-11-02T03:20:00Z,27.1690,-82.9260,5.0,35.93,1111122 
COMPS,ioos:station:USF.COMPS:C10:1,2011-11-02T03:40:00Z,27.1690,-82.9260,5.0,35.94,1111122 
COMPS,ioos:station:USF.COMPS:C10:1,2011-11-02T04:00:00Z,27.1690,-82.9260,5.0,35.94,1111122 
COMPS,ioos:station:USF.COMPS:C10:1,2011-11-02T04:20:00Z,27.1690,-82.9260,5.0,35.94,1111122 
COMPS,ioos:station:USF.COMPS:C10:1,2011-11-02T05:40:00Z,27.1690,-82.9260,5.0,35.95,1111122 
COMPS,ioos:station:USF.COMPS:C10:1,2011-11-02T06:00:00Z,27.1690,-82.9260,5.0,35.95,1111122 
COMPS,ioos:station:USF.COMPS:C10:1,2011-11-02T06:20:00Z,27.1690,-82.9260,5.0,35.95,1111122 
COMPS,ioos:station:USF.COMPS:C10:1,2011-11-02T06:40:00Z,27.1690,-82.9260,5.0,35.95,1111122 
COMPS,ioos:station:USF.COMPS:C10:1,2011-11-02T07:00:00Z,27.1690,-82.9260,5.0,35.95,1111122 
COMPS,ioos:station:USF.COMPS:C10:1,2011-11-02T07:20:00Z,27.1690,-82.9260,5.0,35.95,1111122 
COMPS,ioos:station:USF.COMPS:C10:1,2011-11-02T07:40:00Z,27.1690,-82.9260,5.0,35.95,1111122 
COMPS,ioos:station:USF.COMPS:C10:1,2011-11-02T08:00:00Z,27.1690,-82.9260,5.0,35.95,1111122 
COMPS,ioos:station:USF.COMPS:C10:1,2011-11-02T08:20:00Z,27.1690,-82.9260,5.0,35.95,1111122 
COMPS,ioos:station:USF.COMPS:C10:1,2011-11-02T08:40:00Z,27.1690,-82.9260,5.0,35.94,1111122 
COMPS,ioos:station:USF.COMPS:C10:1,2011-11-02T09:00:00Z,27.1690,-82.9260,5.0,35.94,1111122 
COMPS,ioos:station:USF.COMPS:C10:1,2011-11-02T09:20:00Z,27.1690,-82.9260,5.0,35.94,1111122 
COMPS,ioos:station:USF.COMPS:C10:1,2011-11-02T09:40:00Z,27.1690,-82.9260,5.0,35.94,1111122 
COMPS,ioos:station:USF.COMPS:C10:1,2011-11-02T10:00:00Z,27.1690,-82.9260,5.0,35.95,1111122 
COMPS,ioos:station:USF.COMPS:C10:1,2011-11-02T10:20:00Z,27.1690,-82.9260,5.0,35.95,1111122 
COMPS,ioos:station:USF.COMPS:C10:1,2011-11-02T10:40:00Z,27.1690,-82.9260,5.0,35.95,1111122 
COMPS,ioos:station:USF.COMPS:C10:1,2011-11-02T11:00:00Z,27.1690,-82.9260,5.0,35.95,1111122 
COMPS,ioos:station:USF.COMPS:C10:1,2011-11-02T11:20:00Z,27.1690,-82.9260,5.0,35.95,1111122 
COMPS,ioos:station:USF.COMPS:C10:1,2011-11-02T11:40:00Z,27.1690,-82.9260,5.0,35.96,1111122 
COMPS,ioos:station:USF.COMPS:C10:1,2011-11-02T12:00:00Z,27.1690,-82.9260,5.0,35.96,1111122 
COMPS,ioos:station:USF.COMPS:C10:1,2011-11-02T12:20:00Z,27.1690,-82.9260,5.0,35.97,1111122 
COMPS,ioos:station:USF.COMPS:C10:1,2011-11-02T12:40:00Z,27.1690,-82.9260,5.0,35.97,1111122 
COMPS,ioos:station:USF.COMPS:C10:1,2011-11-02T13:00:00Z,27.1690,-82.9260,5.0,35.98,1111122 
COMPS,ioos:station:USF.COMPS:C10:1,2011-11-02T13:20:00Z,27.1690,-82.9260,5.0,35.98,1111122 
COMPS,ioos:station:USF.COMPS:C10:1,2011-11-02T13:40:00Z,27.1690,-82.9260,5.0,35.98,1111122 
COMPS,ioos:station:USF.COMPS:C10:1,2011-11-02T14:00:00Z,27.1690,-82.9260,5.0,35.98,1111122 
COMPS,ioos:station:USF.COMPS:C10:1,2011-11-02T14:20:00Z,27.1690,-82.9260,5.0,35.98,1111122 
COMPS,ioos:station:USF.COMPS:C10:1,2011-11-02T14:40:00Z,27.1690,-82.9260,5.0,35.99,1111122 
COMPS,ioos:station:USF.COMPS:C10:1,2011-11-02T15:00:00Z,27.1690,-82.9260,5.0,35.99,1111122 
COMPS,ioos:station:USF.COMPS:C10:1,2011-11-02T15:20:00Z,27.1690,-82.9260,5.0,35.99,1111122 
COMPS,ioos:station:USF.COMPS:C10:1,2011-11-02T15:40:00Z,27.1690,-82.9260,5.0,35.99,1111122 
COMPS,ioos:station:USF.COMPS:C10:1,2011-11-02T16:00:00Z,27.1690,-82.9260,5.0,35.99,1111122 
COMPS,ioos:station:USF.COMPS:C10:1,2011-11-02T16:20:00Z,27.1690,-82.9260,5.0,35.99,1111122 
COMPS,ioos:station:USF.COMPS:C10:1,2011-11-02T16:40:00Z,27.1690,-82.9260,5.0,36.0,1111122 
COMPS,ioos:station:USF.COMPS:C10:1,2011-11-02T17:00:00Z,27.1690,-82.9260,5.0,35.99,1111122 
COMPS,ioos:station:USF.COMPS:C10:1,2011-11-02T17:20:00Z,27.1690,-82.9260,5.0,36.0,1111122 
COMPS,ioos:station:USF.COMPS:C10:1,2011-11-02T17:40:00Z,27.1690,-82.9260,5.0,35.99,1111122 
COMPS,ioos:station:USF.COMPS:C10:1,2011-11-02T18:00:00Z,27.1690,-82.9260,5.0,35.99,1111122 
COMPS,ioos:station:USF.COMPS:C10:1,2011-11-02T18:20:00Z,27.1690,-82.9260,5.0,35.99,1111122 
COMPS,ioos:station:USF.COMPS:C10:1,2011-11-02T18:40:00Z,27.1690,-82.9260,5.0,35.99,1111122 
COMPS,ioos:station:USF.COMPS:C10:1,2011-11-02T19:00:00Z,27.1690,-82.9260,5.0,35.98,1111122 
COMPS,ioos:station:USF.COMPS:C10:1,2011-11-02T19:20:00Z,27.1690,-82.9260,5.0,35.99,1111122 
COMPS,ioos:station:USF.COMPS:C10:1,2011-11-02T19:40:00Z,27.1690,-82.9260,5.0,35.99,1111122 
COMPS,ioos:station:USF.COMPS:C10:1,2011-11-02T20:00:00Z,27.1690,-82.9260,5.0,35.98,1111122 
COMPS,ioos:station:USF.COMPS:C10:1,2011-11-02T20:20:00Z,27.1690,-82.9260,5.0,35.98,1111122 
COMPS,ioos:station:USF.COMPS:C10:1,2011-11-02T20:40:00Z,27.1690,-82.9260,5.0,35.97,1111122 
COMPS,ioos:station:USF.COMPS:C10:1,2011-11-02T21:00:00Z,27.1690,-82.9260,5.0,35.98,1111122 
COMPS,ioos:station:USF.COMPS:C10:1,2011-11-02T21:20:00Z,27.1690,-82.9260,5.0,35.98,1111122 
COMPS,ioos:station:USF.COMPS:C10:1,2011-11-02T21:40:00Z,27.1690,-82.9260,5.0,35.98,1111122 
COMPS,ioos:station:USF.COMPS:C10:1,2011-11-02T22:00:00Z,27.1690,-82.9260,5.0,35.98,1111122 
COMPS,ioos:station:USF.COMPS:C10:1,2011-11-02T22:20:00Z,27.1690,-82.9260,5.0,35.99,1111122 
COMPS,ioos:station:USF.COMPS:C10:1,2011-11-02T22:40:00Z,27.1690,-82.9260,5.0,35.99,1111122 
COMPS,ioos:station:USF.COMPS:C10:1,2011-11-02T23:00:00Z,27.1690,-82.9260,5.0,36.0,1111122 
COMPS,ioos:station:USF.COMPS:C10:1,2011-11-02T23:20:00Z,27.1690,-82.9260,5.0,36.0,1111122 
COMPS,ioos:station:USF.COMPS:C10:1,2011-11-02T23:40:00Z,27.1690,-82.9260,5.0,36.0,1111122 
COMPS,ioos:station:USF.COMPS:C10:1,2011-11-03T01:00:00Z,27.1690,-82.9260,5.0,36.01,1111122 
COMPS,ioos:station:USF.COMPS:C10:1,2011-11-03T01:20:00Z,27.1690,-82.9260,5.0,36.01,1111122 
COMPS,ioos:station:USF.COMPS:C10:1,2011-11-03T01:40:00Z,27.1690,-82.9260,5.0,36.01,1111122 
COMPS,ioos:station:USF.COMPS:C10:1,2011-11-03T02:00:00Z,27.1690,-82.9260,5.0,36.01,1111122 
COMPS,ioos:station:USF.COMPS:C10:1,2011-11-03T02:20:00Z,27.1690,-82.9260,5.0,35.92,1111122 
COMPS,ioos:station:USF.COMPS:C10:1,2011-11-03T02:40:00Z,27.1690,-82.9260,5.0,35.91,1111122 
COMPS,ioos:station:USF.COMPS:C10:1,2011-11-03T03:00:00Z,27.1690,-82.9260,5.0,35.89,1111122 
COMPS,ioos:station:USF.COMPS:C10:1,2011-11-03T03:20:00Z,27.1690,-82.9260,5.0,35.89,1111122 
COMPS,ioos:station:USF.COMPS:C10:1,2011-11-03T03:40:00Z,27.1690,-82.9260,5.0,35.88,1111122 
COMPS,ioos:station:USF.COMPS:C10:1,2011-11-03T04:00:00Z,27.1690,-82.9260,5.0,35.91,1111122 
COMPS,ioos:station:USF.COMPS:C10:1,2011-11-03T04:20:00Z,27.1690,-82.9260,5.0,35.9,1111122 
COMPS,ioos:station:USF.COMPS:C10:1,2011-11-03T04:40:00Z,27.1690,-82.9260,5.0,35.91,1111122 
COMPS,ioos:station:USF.COMPS:C10:1,2011-11-03T05:00:00Z,27.1690,-82.9260,5.0,35.91,1111122 
COMPS,ioos:station:USF.COMPS:C10:1,2011-11-03T05:20:00Z,27.1690,-82.9260,5.0,35.92,1111122 
COMPS,ioos:station:USF.COMPS:C10:1,2011-11-03T05:40:00Z,27.1690,-82.9260,5.0,35.86,1111122 
COMPS,ioos:station:USF.COMPS:C10:1,2011-11-03T06:00:00Z,27.1690,-82.9260,5.0,35.84,1111122 
COMPS,ioos:station:USF.COMPS:C10:1,2011-11-03T06:20:00Z,27.1690,-82.9260,5.0,35.85,1111122 
COMPS,ioos:station:USF.COMPS:C10:1,2011-11-03T06:40:00Z,27.1690,-82.9260,5.0,35.86,1111122 
COMPS,ioos:station:USF.COMPS:C10:1,2011-11-03T07:00:00Z,27.1690,-82.9260,5.0,35.87,1111122 
COMPS,ioos:station:USF.COMPS:C10:1,2011-11-03T07:20:00Z,27.1690,-82.9260,5.0,35.89,1111122 
COMPS,ioos:station:USF.COMPS:C10:1,2011-11-03T07:40:00Z,27.1690,-82.9260,5.0,35.9,1111122 
COMPS,ioos:station:USF.COMPS:C10:1,2011-11-03T08:00:00Z,27.1690,-82.9260,5.0,35.94,1111122 
COMPS,ioos:station:USF.COMPS:C10:1,2011-11-03T08:20:00Z,27.1690,-82.9260,5.0,35.93,1111122 
COMPS,ioos:station:USF.COMPS:C10:1,2011-11-03T08:40:00Z,27.1690,-82.9260,5.0,35.93,1111122 
COMPS,ioos:station:USF.COMPS:C10:1,2011-11-03T09:00:00Z,27.1690,-82.9260,5.0,35.93,1111122 
COMPS,ioos:station:USF.COMPS:C10:1,2011-11-03T09:20:00Z,27.1690,-82.9260,5.0,35.92,1111122 
COMPS,ioos:station:USF.COMPS:C10:1,2011-11-03T09:40:00Z,27.1690,-82.9260,5.0,35.91,1111122 
COMPS,ioos:station:USF.COMPS:C10:1,2011-11-03T10:00:00Z,27.1690,-82.9260,5.0,35.91,1111122 
COMPS,ioos:station:USF.COMPS:C10:1,2011-11-03T10:20:00Z,27.1690,-82.9260,5.0,35.9,1111122 
COMPS,ioos:station:USF.COMPS:C10:1,2011-11-03T10:40:00Z,27.1690,-82.9260,5.0,35.89,1111122 
COMPS,ioos:station:USF.COMPS:C10:1,2011-11-03T11:00:00Z,27.1690,-82.9260,5.0,35.9,1111122 
COMPS,ioos:station:USF.COMPS:C10:1,2011-11-03T11:20:00Z,27.1690,-82.9260,5.0,35.89,1111122 
COMPS,ioos:station:USF.COMPS:C10:1,2011-11-03T11:40:00Z,27.1690,-82.9260,5.0,35.88,1111122 
COMPS,ioos:station:USF.COMPS:C10:1,2011-11-03T12:00:00Z,27.1690,-82.9260,5.0,35.88,1111122 
COMPS,ioos:station:USF.COMPS:C10:1,2011-11-03T12:20:00Z,27.1690,-82.9260,5.0,35.87,1111122 
COMPS,ioos:station:USF.COMPS:C10:1,2011-11-03T12:40:00Z,27.1690,-82.9260,5.0,35.86,1111122 
COMPS,ioos:station:USF.COMPS:C10:1,2011-11-03T13:00:00Z,27.1690,-82.9260,5.0,35.85,1111122 
COMPS,ioos:station:USF.COMPS:C10:1,2011-11-03T13:20:00Z,27.1690,-82.9260,5.0,35.85,1111122 
COMPS,ioos:station:USF.COMPS:C10:1,2011-11-03T13:40:00Z,27.1690,-82.9260,5.0,35.85,1111122 
COMPS,ioos:station:USF.COMPS:C10:1,2011-11-03T14:00:00Z,27.1690,-82.9260,5.0,35.84,1111122 
COMPS,ioos:station:USF.COMPS:C10:1,2011-11-03T14:20:00Z,27.1690,-82.9260,5.0,35.83,1111122 
COMPS,ioos:station:USF.COMPS:C10:1,2011-11-03T14:40:00Z,27.1690,-82.9260,5.0,35.83,1111122 
COMPS,ioos:station:USF.COMPS:C10:1,2011-11-03T15:00:00Z,27.1690,-82.9260,5.0,35.81,1111122 
COMPS,ioos:station:USF.COMPS:C10:1,2011-11-03T15:20:00Z,27.1690,-82.9260,5.0,35.8,1111122 
COMPS,ioos:station:USF.COMPS:C10:1,2011-11-03T15:40:00Z,27.1690,-82.9260,5.0,35.79,1111122 
COMPS,ioos:station:USF.COMPS:C10:1,2011-11-03T16:00:00Z,27.1690,-82.9260,5.0,35.79,1111122 
COMPS,ioos:station:USF.COMPS:C10:1,2011-11-03T16:20:00Z,27.1690,-82.9260,5.0,35.79,1111122 
COMPS,ioos:station:USF.COMPS:C10:1,2011-11-03T16:40:00Z,27.1690,-82.9260,5.0,35.79,1111122 
COMPS,ioos:station:USF.COMPS:C10:1,2011-11-03T17:00:00Z,27.1690,-82.9260,5.0,35.79,1111122 
COMPS,ioos:station:USF.COMPS:C10:1,2011-11-03T17:20:00Z,27.1690,-82.9260,5.0,35.79,1111122 
COMPS,ioos:station:USF.COMPS:C10:1,2011-11-03T17:40:00Z,27.1690,-82.9260,5.0,35.79,1111122 
COMPS,ioos:station:USF.COMPS:C10:1,2011-11-03T18:00:00Z,27.1690,-82.9260,5.0,35.78,1111122 
COMPS,ioos:station:USF.COMPS:C10:1,2011-11-03T18:20:00Z,27.1690,-82.9260,5.0,35.77,1111122 
COMPS,ioos:station:USF.COMPS:C10:1,2011-11-03T18:40:00Z,27.1690,-82.9260,5.0,35.77,1111122 
COMPS,ioos:station:USF.COMPS:C10:1,2011-11-03T19:00:00Z,27.1690,-82.9260,5.0,35.78,1111122 
COMPS,ioos:station:USF.COMPS:C10:1,2011-11-03T19:20:00Z,27.1690,-82.9260,5.0,35.77,1111122 
COMPS,ioos:station:USF.COMPS:C10:1,2011-11-03T19:40:00Z,27.1690,-82.9260,5.0,35.78,1111122 
COMPS,ioos:station:USF.COMPS:C10:1,2011-11-03T20:00:00Z,27.1690,-82.9260,5.0,35.77,1111122 
COMPS,ioos:station:USF.COMPS:C10:1,2011-11-03T20:20:00Z,27.1690,-82.9260,5.0,35.76,1111122 
COMPS,ioos:station:USF.COMPS:C10:1,2011-11-03T20:40:00Z,27.1690,-82.9260,5.0,35.79,1111122 
COMPS,ioos:station:USF.COMPS:C10:1,2011-11-03T21:00:00Z,27.1690,-82.9260,5.0,35.78,1111122 
COMPS,ioos:station:USF.COMPS:C10:1,2011-11-03T21:20:00Z,27.1690,-82.9260,5.0,35.77,1111122 
COMPS,ioos:station:USF.COMPS:C10:1,2011-11-03T21:40:00Z,27.1690,-82.9260,5.0,35.78,1111122 
COMPS,ioos:station:USF.COMPS:C10:1,2011-11-03T22:00:00Z,27.1690,-82.9260,5.0,35.79,1111122 
COMPS,ioos:station:USF.COMPS:C10:1,2011-11-03T22:20:00Z,27.1690,-82.9260,5.0,35.8,1111122 
COMPS,ioos:station:USF.COMPS:C10:1,2011-11-03T22:40:00Z,27.1690,-82.9260,5.0,35.8,1111122 
COMPS,ioos:station:USF.COMPS:C10:1,2011-11-03T23:00:00Z,27.1690,-82.9260,5.0,35.8,1111122 
COMPS,ioos:station:USF.COMPS:C10:1,2011-11-03T23:20:00Z,27.1690,-82.9260,5.0,35.82,1111122 
COMPS,ioos:station:USF.COMPS:C10:1,2011-11-03T23:40:00Z,27.1690,-82.9260,5.0,35.83,1111122 
COMPS,ioos:station:USF.COMPS:C10:1,2011-11-04T00:00:00Z,27.1690,-82.9260,5.0,35.85,1111122 
COMPS,ioos:station:USF.COMPS:C10:1,2011-11-04T00:20:00Z,27.1690,-82.9260,5.0,35.84,1111122 
COMPS,ioos:station:USF.COMPS:C10:1,2011-11-04T00:40:00Z,27.1690,-82.9260,5.0,35.84,1111122 
COMPS,ioos:station:USF.COMPS:C10:1,2011-11-04T01:00:00Z,27.1690,-82.9260,5.0,35.83,1111122 
COMPS,ioos:station:USF.COMPS:C10:1,2011-11-04T01:20:00Z,27.1690,-82.9260,5.0,35.85,1111122 
COMPS,ioos:station:USF.COMPS:C10:1,2011-11-04T01:40:00Z,27.1690,-82.9260,5.0,35.85,1111122 
COMPS,ioos:station:USF.COMPS:C10:1,2011-11-04T02:00:00Z,27.1690,-82.9260,5.0,35.83,1111122 
COMPS,ioos:station:USF.COMPS:C10:1,2011-11-04T02:20:00Z,27.1690,-82.9260,5.0,35.85,1111122 
COMPS,ioos:station:USF.COMPS:C10:1,2011-11-04T02:40:00Z,27.1690,-82.9260,5.0,35.85,1111122 
COMPS,ioos:station:USF.COMPS:C10:1,2011-11-04T03:00:00Z,27.1690,-82.9260,5.0,35.84,1111122 
COMPS,ioos:station:USF.COMPS:C10:1,2011-11-04T03:20:00Z,27.1690,-82.9260,5.0,35.84,1111122 
COMPS,ioos:station:USF.COMPS:C10:1,2011-11-04T03:40:00Z,27.1690,-82.9260,5.0,35.84,1111122 
COMPS,ioos:station:USF.COMPS:C10:1,2011-11-04T04:00:00Z,27.1690,-82.9260,5.0,35.83,1111122 
COMPS,ioos:station:USF.COMPS:C10:1,2011-11-04T04:20:00Z,27.1690,-82.9260,5.0,35.83,1111122 
COMPS,ioos:station:USF.COMPS:C10:1,2011-11-04T05:40:00Z,27.1690,-82.9260,5.0,35.73,1111122 
COMPS,ioos:station:USF.COMPS:C10:1,2011-11-04T07:00:00Z,27.1690,-82.9260,5.0,35.74,1111122 
COMPS,ioos:station:USF.COMPS:C10:1,2011-11-04T07:20:00Z,27.1690,-82.9260,5.0,35.75,1111122 
COMPS,ioos:station:USF.COMPS:C10:1,2011-11-04T07:40:00Z,27.1690,-82.9260,5.0,35.75,1111122 
COMPS,ioos:station:USF.COMPS:C10:1,2011-11-04T08:00:00Z,27.1690,-82.9260,5.0,35.75,1111122 
COMPS,ioos:station:USF.COMPS:C10:1,2011-11-04T08:20:00Z,27.1690,-82.9260,5.0,35.76,1111122 
COMPS,ioos:station:USF.COMPS:C10:1,2011-11-04T08:40:00Z,27.1690,-82.9260,5.0,35.77,1111122 
COMPS,ioos:station:USF.COMPS:C10:1,2011-11-04T09:00:00Z,27.1690,-82.9260,5.0,35.78,1111122 
COMPS,ioos:station:USF.COMPS:C10:1,2011-11-04T09:20:00Z,27.1690,-82.9260,5.0,35.79,1111122 
COMPS,ioos:station:USF.COMPS:C10:1,2011-11-04T09:40:00Z,27.1690,-82.9260,5.0,35.8,1111122 
COMPS,ioos:station:USF.COMPS:C10:1,2011-11-04T10:00:00Z,27.1690,-82.9260,5.0,35.81,1111122 
COMPS,ioos:station:USF.COMPS:C10:1,2011-11-04T10:20:00Z,27.1690,-82.9260,5.0,35.82,1111122 
COMPS,ioos:station:USF.COMPS:C10:1,2011-11-04T10:40:00Z,27.1690,-82.9260,5.0,35.84,1111122 
COMPS,ioos:station:USF.COMPS:C10:1,2011-11-04T12:00:00Z,27.1690,-82.9260,5.0,35.85,1111122 
COMPS,ioos:station:USF.COMPS:C10:1,2011-11-04T12:20:00Z,27.1690,-82.9260,5.0,35.85,1111122 
COMPS,ioos:station:USF.COMPS:C10:1,2011-11-04T12:40:00Z,27.1690,-82.9260,5.0,35.85,1111122 
COMPS,ioos:station:USF.COMPS:C10:1,2011-11-04T13:00:00Z,27.1690,-82.9260,5.0,35.86,1111122 
COMPS,ioos:station:USF.COMPS:C10:1,2011-11-04T13:20:00Z,27.1690,-82.9260,5.0,35.85,1111122 
COMPS,ioos:station:USF.COMPS:C10:1,2011-11-04T13:40:00Z,27.1690,-82.9260,5.0,35.85,1111122 
COMPS,ioos:station:USF.COMPS:C10:1,2011-11-04T14:00:00Z,27.1690,-82.9260,5.0,35.85,1111122 
COMPS,ioos:station:USF.COMPS:C10:1,2011-11-04T14:20:00Z,27.1690,-82.9260,5.0,35.85,1111122 
COMPS,ioos:station:USF.COMPS:C10:1,2011-11-04T14:40:00Z,27.1690,-82.9260,5.0,35.86,1111122 
COMPS,ioos:station:USF.COMPS:C10:1,2011-11-04T15:00:00Z,27.1690,-82.9260,5.0,35.86,1111122 
COMPS,ioos:station:USF.COMPS:C10:1,2011-11-04T15:20:00Z,27.1690,-82.9260,5.0,35.87,1111122 
COMPS,ioos:station:USF.COMPS:C10:1,2011-11-04T15:40:00Z,27.1690,-82.9260,5.0,35.86,1111122 
COMPS,ioos:station:USF.COMPS:C10:1,2011-11-04T16:00:00Z,27.1690,-82.9260,5.0,35.85,1111122 
COMPS,ioos:station:USF.COMPS:C10:1,2011-11-04T16:20:00Z,27.1690,-82.9260,5.0,35.83,1111122 
COMPS,ioos:station:USF.COMPS:C10:1,2011-11-04T16:40:00Z,27.1690,-82.9260,5.0,35.83,1111122 
COMPS,ioos:station:USF.COMPS:C10:1,2011-11-04T17:00:00Z,27.1690,-82.9260,5.0,35.82,1111122 
COMPS,ioos:station:USF.COMPS:C10:1,2011-11-04T17:20:00Z,27.1690,-82.9260,5.0,35.81,1111122 
COMPS,ioos:station:USF.COMPS:C10:1,2011-11-04T17:40:00Z,27.1690,-82.9260,5.0,35.81,1111122 
COMPS,ioos:station:USF.COMPS:C10:1,2011-11-04T18:00:00Z,27.1690,-82.9260,5.0,35.8,1111122 
COMPS,ioos:station:USF.COMPS:C10:1,2011-11-04T18:20:00Z,27.1690,-82.9260,5.0,35.8,1111122 
COMPS,ioos:station:USF.COMPS:C10:1,2011-11-04T18:40:00Z,27.1690,-82.9260,5.0,35.8,1111122 
COMPS,ioos:station:USF.COMPS:C10:1,2011-11-04T19:00:00Z,27.1690,-82.9260,5.0,35.79,1111122 
COMPS,ioos:station:USF.COMPS:C10:1,2011-11-04T19:20:00Z,27.1690,-82.9260,5.0,35.79,1111122 
COMPS,ioos:station:USF.COMPS:C10:1,2011-11-04T19:40:00Z,27.1690,-82.9260,5.0,35.79,1111122 
COMPS,ioos:station:USF.COMPS:C10:1,2011-11-04T20:00:00Z,27.1690,-82.9260,5.0,35.79,1111122 
COMPS,ioos:station:USF.COMPS:C10:1,2011-11-04T20:20:00Z,27.1690,-82.9260,5.0,35.79,1111122 
COMPS,ioos:station:USF.COMPS:C10:1,2011-11-04T20:40:00Z,27.1690,-82.9260,5.0,35.79,1111122 
COMPS,ioos:station:USF.COMPS:C10:1,2011-11-04T21:00:00Z,27.1690,-82.9260,5.0,35.78,1111122 
COMPS,ioos:station:USF.COMPS:C10:1,2011-11-04T21:20:00Z,27.1690,-82.9260,5.0,35.78,1111122 
COMPS,ioos:station:USF.COMPS:C10:1,2011-11-04T21:40:00Z,27.1690,-82.9260,5.0,35.78,1111122 
COMPS,ioos:station:USF.COMPS:C10:1,2011-11-04T22:00:00Z,27.1690,-82.9260,5.0,35.78,1111122 
COMPS,ioos:station:USF.COMPS:C10:1,2011-11-04T22:20:00Z,27.1690,-82.9260,5.0,35.79,1111122 
COMPS,ioos:station:USF.COMPS:C10:1,2011-11-04T22:40:00Z,27.1690,-82.9260,5.0,35.79,1111122 
COMPS,ioos:station:USF.COMPS:C10:1,2011-11-04T23:00:00Z,27.1690,-82.9260,5.0,35.79,1111122 
COMPS,ioos:station:USF.COMPS:C10:1,2011-11-04T23:20:00Z,27.1690,-82.9260,5.0,35.79,1111122 
COMPS,ioos:station:USF.COMPS:C10:1,2011-11-04T23:40:00Z,27.1690,-82.9260,5.0,35.78,1111122 
COMPS,ioos:station:USF.COMPS:C10:1,2011-11-05T00:00:00Z,27.1690,-82.9260,5.0,35.78,1111122 
COMPS,ioos:station:USF.COMPS:C10:1,2011-11-05T00:20:00Z,27.1690,-82.9260,5.0,35.77,1111122 
COMPS,ioos:station:USF.COMPS:C10:1,2011-11-05T00:40:00Z,27.1690,-82.9260,5.0,35.77,1111122 
COMPS,ioos:station:USF.COMPS:C10:1,2011-11-05T01:00:00Z,27.1690,-82.9260,5.0,35.77,1111122 
COMPS,ioos:station:USF.COMPS:C10:1,2011-11-05T01:20:00Z,27.1690,-82.9260,5.0,35.77,1111122 
COMPS,ioos:station:USF.COMPS:C10:1,2011-11-05T01:40:00Z,27.1690,-82.9260,5.0,35.77,1111122 
COMPS,ioos:station:USF.COMPS:C10:1,2011-11-05T02:00:00Z,27.1690,-82.9260,5.0,35.76,1111122 
COMPS,ioos:station:USF.COMPS:C10:1,2011-11-05T02:20:00Z,27.1690,-82.9260,5.0,35.75,1111122 
COMPS,ioos:station:USF.COMPS:C10:1,2011-11-05T02:40:00Z,27.1690,-82.9260,5.0,35.75,1111122 
COMPS,ioos:station:USF.COMPS:C10:1,2011-11-05T03:00:00Z,27.1690,-82.9260,5.0,35.74,1111122 
COMPS,ioos:station:USF.COMPS:C10:1,2011-11-05T03:20:00Z,27.1690,-82.9260,5.0,35.74,1111122 
COMPS,ioos:station:USF.COMPS:C10:1,2011-11-05T03:40:00Z,27.1690,-82.9260,5.0,35.74,1111122 
COMPS,ioos:station:USF.COMPS:C10:1,2011-11-05T04:00:00Z,27.1690,-82.9260,5.0,35.73,1111122 
COMPS,ioos:station:USF.COMPS:C10:1,2011-11-05T04:20:00Z,27.1690,-82.9260,5.0,35.72,1111122 